Tracking 28052 objects as of 25-Sep-2023
HD Live streaming from Space Station
objects crossing your sky now

STARLINK-4415

Track STARLINK-4415 now!
10-day predictions
STARLINK-4415 is classified as:


NORAD ID: 53465
Int'l Code: 2022-099A
Perigee: 569.8 km
Apogee: 570.5 km
Inclination: 97.7 °
Period: 95.9 minutes
Semi major axis: 6941 km
RCS: Unknown
Launch date: August 12, 2022
Source: United States (US)
Launch site: AIR FORCE WESTERN TEST RANGE (AFWTR)
Your satellite tracking list
Your tracking list is empty




NASA's NSSDC Master Catalog

Two Line Element Set (TLE):
1 53465U 22099A   23267.92001593  .00000376  00000-0  33836-4 0  9997
2 53465  97.6545  27.5640 0000444 117.3357 242.7913 15.01260373 61445
Source of the keplerian elements: AFSPC